GALAXY 28 (G-28)

Last updated on Fri Dec 19 2025 00:02:49 GMT+0000 (Coordinated Universal Time)

1 28702U 05022A 25352.60768828 -.00000165 00000+0 00000+0 0 9991 2 28702 2.8345 81.2150 0002925 191.5639 304.7711 1.00271072 50167
UTC large
Height (km)
Speed (km/s)
/
Latitude / Longitude
Inclination (degrees)
Orbital Period (minutes)
Azimuth
Elevation
Range (km)
Doppler Factor

Next 0 passes for location: London (51.5072 / 0.1276)

Sorry there are no passes over London.